Lid_Strength_Index
0 0 0 0 1 0 0 -0 -0 -0 -0 -0 -1 -1 -1 -1 -1 2 5 3 2 -1 1 6 6 7 7 7 8 10 13 15 14 14 12 11 11 10 9 10 10 9 10 9 8
0 1 1 1 1 1 0 0 0 0 0 -0 -0 -1 -1 -1 3 5 1 -1 -2 -1 6 7 9 8 9 9 9 11 14 13 13 12 12 11 11 10 11 11 11 10 9 8 8
0 0 1 1 1 1 1 0 0 0 -0 -0 -0 -1 -1 0 5 6 -1 -1 -2 1 5 7 7 8 11 10 10 12 14 12 11 11 10 10 11 10 11 12 11 10 10 9 9
-0 0 0 1 1 1 1 0 0 -0 -0 -0 -1 -1 -0 3 12 4 -1 -1 -1 4 6 7 8 11 12 12 10 14 11 11 9 10 10 11 10 11 11 10 9 10 9 9 9
-1 -0 0 0 0 0 0 0 0 -0 0 -0 -1 -1 3 9 7 3 -0 0 4 6 7 8 10 10 12 12 11 13 11 10 10 9 11 10 11 11 11 11 10 9 9 10 10
-1 -0 -0 -0 0 0 -0 -0 -0 -0 0 -0 -1 -0 6 11 3 3 3 4 5 6 8 8 9 9 11 11 12 11 11 10 10 10 10 10 11 10 11 11 11 10 10 11 10
-1 -1 -0 -0 -0 -0 -0 -0 -0 -0 -0 -0 -1 2 7 9 3 4 4 6 6 6 8 7 8 10 10 11 10 11 12 11 10 11 11 10 12 12 11 11 12 12 12 11 11
-0 -1 -1 -0 -1 -1 -1 -1 -1 -0 -0 -1 -1 4 9 4 4 4 5 6 6 6 6 7 7 8 10 10 10 13 13 15 12 11 11 11 14 11 11 12 12 13 13 12 11
1 1 0 -0 -1 -1 -1 -1 -1 -1 -1 -1 3 6 8 3 4 3 5 6 6 6 7 5 7 10 10 13 14 14 16 15 12 11 11 12 13 12 12 12 13 14 14 13 12
1 1 1 1 1 0 -1 -1 -1 -0 0 1 3 8 7 7 5 4 5 5 7 8 8 9 10 12 13 13 17 16 16 14 14 12 13 14 13 13 12 12 12 13 14 13 12
1 1 1 1 1 1 2 3 5 6 4 7 7 7 7 6 5 6 5 6 7 9 11 11 13 14 12 12 13 13 14 14 13 11 13 13 13 12 12 13 13 14 14 13 12
0 1 1 1 0 0 3 5 5 5 8 4 5 6 5 6 8 6 5 8 9 11 11 12 14 11 10 11 12 13 14 14 13 12 13 14 14 13 13 13 12 12 13 13 14
2 1 0 0 0 1 3 3 4 5 8 7 6 6 5 6 8 8 7 8 10 11 11 13 11 10 11 12 13 13 14 15 14 13 14 15 15 14 13 13 12 11 11 12 13
2 2 1 1 2 2 3 1 2 3 12 10 8 6 7 7 9 6 6 7 10 11 11 12 10 11 11 12 12 15 12 13 14 15 18 15 18 16 14 13 13 11 13 13 14
3 3 3 1 3 4 2 1 2 4 20 9 8 6 7 7 9 9 7 9 11 11 10 12 12 12 13 12 12 14 13 14 15 16 18 17 18 17 15 14 13 12 14 14 14
3 3 3 2 2 2 2 2 3 13 19 12 10 10 10 9 10 10 9 9 9 11 12 12 12 12 11 12 12 12 13 14 16 17 20 16 17 17 15 13 13 13 13 14 14
2 2 3 2 3 1 2 4 13 18 10 12 12 11 11 12 12 12 13 13 13 15 16 14 13 13 12 14 13 13 15 19 20 21 20 17 18 15 13 13 13 12 14 15 14
2 2 2 2 1 0 2 9 17 13 13 9 10 11 12 12 12 13 14 15 13 14 16 16 17 13 12 13 14 15 15 19 22 22 20 17 19 16 13 13 13 12 14 15 15
2 4 3 2 1 1 7 15 15 12 10 11 11 13 13 12 12 14 15 15 13 13 15 16 16 13 13 13 12 16 17 13 18 24 21 18 16 13 14 13 14 15 16 16 16
5 6 5 1 0 3 9 13 12 9 8 9 14 12 14 13 13 14 15 13 13 12 12 13 16 14 14 13 13 14 13 17 17 22 22 20 19 16 15 14 14 16 17 17 17
6 8 4 -0 0 6 12 12 10 7 8 11 12 13 12 13 12 13 13 12 11 12 10 12 13 15 14 15 15 15 16 15 14 17 21 21 18 14 14 14 14 15 16 17 18
6 10 4 0 9 8 12 11 8 8 7 9 9 11 12 11 12 12 13 12 10 10 12 11 13 18 16 14 13 14 14 13 16 18 16 18 17 14 14 14 14 14 15 17 17
7 8 4 2 12 11 10 10 9 9 9 9 11 9 9 12 14 12 11 9 9 10 11 10 14 19 18 14 14 14 14 12 13 15 18 19 16 15 15 14 14 15 16 17 17
7 11 8 5 6 9 10 10 11 8 8 8 9 9 10 12 10 13 12 9 9 9 8 9 14 15 17 15 13 15 14 13 13 16 16 16 14 13 14 14 13 14 15 16 17
9 10 9 11 10 9 9 10 11 11 8 8 10 10 11 13 13 13 11 11 10 9 9 10 15 16 15 14 14 14 13 14 14 13 16 14 14 12 10 11 12 13 14 16 17
9 10 8 12 9 9 9 11 11 10 10 10 11 9 9 12 11 12 11 11 12 10 10 10 15 13 15 14 13 15 13 13 13 13 13 12 13 9 9 10 12 12 13 15 16
8 7 7 9 11 12 11 10 10 9 8 8 10 10 10 10 8 8 8 8 9 11 11 12 13 15 17 14 14 17 14 13 12 11 12 14 11 9 9 10 9 10 13 13 14